User: anonymous   Login
Location: Mentone
(34.5413°N, 85.5351°W)
Time: 08:13:42
(UTC-06:00)
Language:

S-56A Canister/Altair - Orbit

View from above orbital plane
View from above orbital plane
View from above satellite
View from above satellite

Ground track
Ground track

The orbit data is extracted from the following two-line orbital elements,

1 00082U 61004B   14353.59191688  .00000073  00000-0  10542-3 0  7447
2 00082 038.8564 066.2208 1175259 121.3054 250.8057 12.25664876561529
Epoch (UTC): 19 December 2014 14:12:21
Eccentricity: 0.1175259
inclination: 38.8564°
perigee height: 634 km
apogee height: 2502 km
right ascension of ascending node: 66.2208°
argument of perigee: 121.3054°
revolutions per day: 12.25664876
mean anomaly at epoch: 250.8057°
orbit number at epoch: 56152

The dashed part of the orbit path shows where the satellite is in the earth's shadow,  

DLR